This demonstration page uses our WeatherBlox Daily Observations layout. Learn more.

Left ArrowRight Arrow

41.12389, -100.76542

Hourly Observations for December 27, 2017

Temp ( °F °C ) Dew Point ( °F °C ) Humidity (%) Winds ( mph kmh ) Pressure ( in mb ) Visibility ( mi km ) Precip ( " mm )
12:08 am 00:08 Hazy -8 -22.2 -16 -26.7 67 67 ESE 5 7 30.89 1046 3 5 0.00 0.00
12:53 am 00:53 Clear -8 -22.2 -15 -26.1 71 71 ESE 5 7 30.71 1040 10 16 0.00 0.00
1:53 am 01:53 Partly Cloudy -8 -22.2 -15 -26.1 71 71 E 6 9 30.68 1039 10 16 0.00 0.00
2:03 am 02:03 Mostly Cloudy -7 -21.7 -14 -25.6 71 71 ESE 6 9 30.83 1044 10 16 0.00 0.00
2:53 am 02:53 Cloudy -1 -18.3 -8 -22.2 72 72 Calm 30.65 1038 10 16 0.00 0.00
3:53 am 03:53 Partly Cloudy 5 -15 -3 -19.4 69 69 S 10 17 30.62 1037 10 16 0.00 0.00
4:53 am 04:53 Clear 6 -14.4 -1 -18.3 73 73 S 12 19 30.59 1036 10 16 0.00 0.00
5:53 am 05:53 Clear 7 -13.9 0 -17.8 73 73 S 14 22 30.58 1036 10 16 0.00 0.00
6:16 am 06:16 Mostly Cloudy 9 -12.8 2 -16.7 73 73 S 16 26 30.65 1038 10 16 0.00 0.00
6:53 am 06:53 Cloudy 10 -12.2 3 -16.1 73 73 S 16 26 30.58 1035 10 16 0.00 0.00
7:53 am 07:53 Cloudy 8 -13.3 4 -15.6 83 83 SSE 8 13 30.59 1036 10 16 0.00 0.00
8:53 am 08:53 Cloudy 9 -12.8 4 -15.6 80 80 SSE 8 13 30.57 1035 10 16 0.00 0.00
9:53 am 09:53 Cloudy 10 -12.2 5 -15 80 80 SE 8 13 30.55 1035 10 16 0.00 0.00
10:53 am 10:53 Cloudy 12 -11.1 6 -14.4 77 77 SSE 12 19 30.54 1034 10 16 0.00 0.00
11:53 am 11:53 Cloudy 12 -11.1 6 -14.4 77 77 SSE 13 20 30.49 1033 10 16 0.00 0.00
12:53 pm 12:53 Cloudy 12 -11.1 6 -14.4 77 77 SSE 10 17 30.45 1031 8 13 0.00 0.03
1:53 pm 13:53 Cloudy 14 -10 7 -13.9 73 73 SE 12 19 30.41 1030 10 16 0.00 0.00
2:53 pm 14:53 Cloudy 16 -8.9 10 -12.2 77 77 SSE 10 17 30.37 1028 10 16 0.00 0.03
3:53 pm 15:53 Cloudy 17 -8.3 10 -12.2 74 74 SSE 15 24 30.36 1028 10 16 0.00 0.00
4:53 pm 16:53 Cloudy 17 -8.3 11 -11.7 77 77 SE 7 11 30.35 1028 10 16 0.00 0.00
5:53 pm 17:53 Cloudy 17 -8.3 11 -11.7 77 77 SE 8 13 30.35 1028 10 16 0.00 0.00
6:30 pm 18:30 Partly Cloudy 16 -8.9 11 -11.7 80 80 SE 8 13 30.39 1029 10 16 0.00 0.00
6:53 pm 18:53 Clear 15 -9.4 11 -11.7 84 84 SE 6 9 30.34 1027 10 16 0.00 0.00
7:53 pm 19:53 Clear 16 -8.9 11 -11.7 80 80 SE 9 15 30.34 1027 10 16 0.00 0.00
8:53 pm 20:53 Clear 15 -9.4 10 -12.2 80 80 ESE 9 15 30.33 1027 10 16 0.00 0.00
9:53 pm 21:53 Clear 11 -11.7 7 -13.9 84 84 ESE 7 11 30.32 1027 10 16 0.00 0.00
10:53 pm 22:53 Clear 14 -10 9 -12.8 80 80 SE 5 7 30.30 1026 10 16 0.00 0.00
11:53 pm 23:53 Cloudy 16 -8.9 11 -11.7 80 80 SE 3 6 30.29 1026 10 16 0.00 0.00

Powered by AerisWeather